Howell, MI

10:16 AM EDT on August 24, 2016 (GMT -0400)
Livingston County

Weather History for KOZW - December, 2012

Change the Weather History Date:

Monday, December 3, 2012

  Actual Average Record
Temperature  
Mean Temperature 50 °F -  
Max Temperature 62 °F 41 °F 66 °F (1998)
Min Temperature 38 °F 28 °F -2 °F (2002)
Degree Days  
Heating Degree Days 16    
Moisture  
Dew Point 50 °F    
Average Humidity 92    
Maximum Humidity 95    
Minimum Humidity 78    
Precipitation  
Precipitation 0.00 in - - ()
Sea Level Pressure  
Sea Level Pressure 30.02 in    
Wind  
Wind Speed 6 mph (SSE)    
Max Wind Speed 18 mph    
Max Gust Speed 26 mph    
Visibility 3 miles    
Events Fog    
Averages and records for this station are not official NWS values.
T = Trace of Precipitation, MM = Missing Value Source: NWS Daily Summary

Daily Weather History Graph

Daily Weather History Graph

Search for Another Location

Airport or City:

Trip Planner

Search our weather history database for the weather conditions in past years. The results will help you decide how hot, cold, wet, or windy it might be!

Date:

Astronomy

Dec. 03, 2012 Rise Set
Actual Time 7:48 AM EST 5:02 PM EST
Civil Twilight 7:17 AM EST 5:34 PM EST
Nautical Twilight 6:42 AM EST 6:09 PM EST
Astronomical Twilight 6:07 AM EST 6:43 PM EST
Moon 9:52 PM EST (12/3) 11:08 AM EST (12/3)
Length of Visible Light 10h 17m
Length of Day
9h 13m
Waning Gibbous, 78% of the Moon is Illuminated
Dec 3
Waning Gibbous
Dec 6
Last Quarter
Dec 13
New
Dec 20
First Quarter
Dec 28
Full

Hourly Weather History & Observations

Time (EST) Temp. Windchill Dew Point Humidity Pressure Visibility Wind Dir Wind Speed Gust Speed Precip Events Conditions
12:15 AM 41.4 °F 38.4 °F 39.2 °F 92% 30.10 in 0.5 mi East 4.6 mph - N/A Fog Fog
12:35 AM 43.7 °F - 41.5 °F 92% 30.10 in 2.0 mi Calm Calm - N/A   Overcast
12:54 AM 43.9 °F - 41.7 °F 92% 30.10 in 0.8 mi Calm Calm - N/A   Overcast
1:15 AM 40.1 °F - 37.9 °F 92% 30.10 in 0.2 mi Calm Calm - N/A Fog Fog
1:35 AM 40.5 °F - 38.3 °F 92% 30.10 in 0.5 mi Calm Calm - N/A Fog Fog
1:54 AM 39.0 °F - 36.9 °F 92% 30.10 in 0.2 mi Calm Calm - N/A Fog Fog
2:15 AM 38.7 °F - 36.7 °F 93% 30.10 in 0.2 mi Calm Calm - N/A Fog Fog
2:35 AM 41.5 °F - 39.7 °F 93% 30.10 in 0.2 mi Calm Calm - N/A Fog Fog
2:54 AM 39.9 °F - 38.1 °F 93% 30.10 in 0.2 mi Calm Calm - N/A Fog Fog
3:15 AM 38.1 °F - 36.5 °F 94% 30.10 in 0.2 mi Calm Calm - N/A Fog Fog
3:34 AM 39.7 °F - 37.9 °F 93% 30.11 in 0.2 mi Calm Calm - N/A Fog Fog
3:55 AM 39.7 °F 37.6 °F 38.1 °F 94% 30.12 in 0.2 mi SE 3.5 mph - N/A Fog Fog
4:15 AM 41.0 °F 38.0 °F 39.2 °F 93% 30.11 in 0.2 mi ESE 4.6 mph - N/A Fog Fog
4:34 AM 43.3 °F 41.7 °F 41.5 °F 93% 30.11 in 0.5 mi SE 3.5 mph - N/A Fog Fog
4:55 AM 43.9 °F 41.3 °F 42.3 °F 94% 30.11 in 1.0 mi SSE 4.6 mph - N/A   Overcast
5:15 AM 45.1 °F 42.0 °F 43.7 °F 95% 30.11 in 0.8 mi SE 5.8 mph - N/A   Overcast
5:34 AM 45.9 °F 41.7 °F 44.2 °F 94% 30.10 in 0.5 mi ESE 8.1 mph - N/A Fog Fog
5:55 AM 46.8 °F - 45.1 °F 94% 30.09 in 1.5 mi ESE 6.9 mph - N/A   Overcast
6:15 AM 46.9 °F - 45.5 °F 95% 30.10 in 1.8 mi SE 8.1 mph - N/A   Overcast
6:35 AM 47.1 °F - 45.5 °F 94% 30.10 in 1.8 mi SE 8.1 mph - N/A   Overcast
6:55 AM 47.3 °F - 45.7 °F 94% 30.10 in 1.5 mi SE 6.9 mph - N/A   Overcast
7:15 AM 47.5 °F - 45.9 °F 94% 30.10 in 1.5 mi SE 8.1 mph - N/A   Overcast
7:35 AM 47.7 °F - 46.0 °F 94% 30.10 in 0.5 mi SE 9.2 mph - N/A Fog Fog
7:55 AM 47.8 °F - 46.4 °F 95% 30.09 in 0.2 mi SE 9.2 mph - N/A Fog Fog
8:14 AM 48.2 °F - 46.4 °F 93% 30.09 in 0.2 mi SSE 10.4 mph - N/A Fog Fog
8:35 AM 48.4 °F - 46.8 °F 94% 30.09 in 0.2 mi SE 8.1 mph - N/A Fog Fog
8:55 AM 48.7 °F - 47.3 °F 95% 30.09 in 0.2 mi ESE 8.1 mph - N/A Fog Fog
9:14 AM 48.7 °F - 47.3 °F 95% 30.09 in 0.2 mi SE 6.9 mph - N/A Fog Fog
9:35 AM 49.3 °F - 47.7 °F 94% 30.09 in 0.2 mi ESE 6.9 mph - N/A Fog Fog
9:55 AM 49.6 °F - 48.2 °F 95% 30.10 in 0.2 mi SE 6.9 mph - N/A Fog Fog
10:14 AM 50.2 °F - 48.6 °F 94% 30.09 in 0.2 mi SE 5.8 mph - N/A Fog Fog
10:35 AM 50.9 °F - 49.3 °F 94% 30.08 in 0.2 mi SE 6.9 mph - N/A Fog Fog
10:55 AM 51.8 °F - 50.2 °F 94% 30.08 in 0.2 mi SE 8.1 mph - N/A Fog Fog
11:15 AM 52.9 °F - 51.3 °F 94% 30.07 in 0.2 mi SSE 10.4 mph 16.1 mph N/A Fog Fog
11:35 AM 53.6 °F - 52.0 °F 94% 30.06 in 0.5 mi SSE 10.4 mph - N/A Fog Fog
11:55 AM 53.8 °F - 52.2 °F 94% 30.05 in 0.8 mi SE 10.4 mph - N/A   Overcast
12:15 PM 54.0 °F - 52.3 °F 94% 30.03 in 0.8 mi SE 10.4 mph - N/A   Overcast
12:35 PM 54.1 °F - 52.7 °F 95% 30.03 in 1.0 mi SSE 10.4 mph - N/A   Overcast
12:54 PM 54.5 °F - 52.9 °F 94% 30.02 in 1.0 mi SSE 10.4 mph - N/A   Overcast
1:15 PM 54.9 °F - 53.2 °F 94% 30.00 in 1.0 mi SSE 9.2 mph - N/A   Overcast
1:35 PM 55.4 °F - 53.8 °F 94% 29.99 in 1.0 mi SSE 9.2 mph - N/A   Overcast
2:15 PM 56.3 °F - 54.7 °F 94% 29.98 in 1.0 mi SSE 8.1 mph - N/A   Overcast
2:35 PM 56.7 °F - 55.0 °F 94% 29.98 in 1.2 mi SSE 12.7 mph 17.3 mph N/A   Overcast
2:54 PM 56.7 °F - 54.9 °F 94% 29.98 in 0.8 mi SSE 10.4 mph - N/A   Overcast
3:15 PM 57.0 °F - 55.2 °F 94% 29.97 in 1.0 mi SSE 11.5 mph - N/A   Overcast
3:34 PM 57.2 °F - 55.4 °F 94% 29.96 in 1.2 mi SSE 11.5 mph - N/A   Overcast
3:55 PM 57.6 °F - 55.8 °F 94% 29.96 in 1.8 mi South 11.5 mph - N/A   Overcast
4:15 PM 58.1 °F - 56.3 °F 94% 29.96 in 1.8 mi South 10.4 mph 16.1 mph N/A   Overcast
4:34 PM 58.3 °F - 56.5 °F 94% 29.96 in 1.8 mi South 10.4 mph - N/A   Overcast
4:55 PM 58.6 °F - 56.7 °F 93% 29.96 in 2.0 mi South 10.4 mph - N/A   Overcast
5:15 PM 59.0 °F - 57.2 °F 94% 29.95 in 3.0 mi SSE 10.4 mph 17.3 mph N/A   Overcast
5:34 PM 59.4 °F - 57.4 °F 93% 29.95 in 3.0 mi SSE 11.5 mph 16.1 mph N/A   Overcast
5:55 PM 59.9 °F - 57.6 °F 92% 29.95 in 4.0 mi South 10.4 mph - N/A   Overcast
6:15 PM 60.1 °F - 57.7 °F 92% 29.95 in 4.0 mi South 11.5 mph 16.1 mph N/A   Overcast
6:35 PM 60.3 °F - 57.7 °F 91% 29.93 in 4.0 mi South 11.5 mph - N/A   Overcast
6:55 PM 60.4 °F - 58.1 °F 92% 29.93 in 5.0 mi South 11.5 mph 17.3 mph N/A   Overcast
7:15 PM 61.2 °F - 58.3 °F 90% 29.93 in 7.0 mi South 13.8 mph 20.7 mph N/A   Overcast
7:35 PM 60.8 °F - 58.1 °F 91% 29.93 in 7.0 mi South 12.7 mph - N/A   Overcast
7:55 PM 61.0 °F - 58.1 °F 90% 29.93 in 7.0 mi South 15.0 mph 20.7 mph N/A   Overcast
8:15 PM 61.2 °F - 58.1 °F 90% 29.92 in 7.0 mi South 12.7 mph 18.4 mph N/A   Overcast
8:35 PM 61.0 °F - 58.1 °F 90% 29.91 in 7.0 mi South 13.8 mph 20.7 mph N/A   Overcast
8:54 PM 60.8 °F - 57.6 °F 89% 29.91 in 7.0 mi South 15.0 mph 20.7 mph N/A   Mostly Cloudy
9:15 PM 60.8 °F - 57.6 °F 89% 29.91 in 10.0 mi South 15.0 mph 21.9 mph N/A   Scattered Clouds
9:35 PM 60.8 °F - 57.2 °F 88% 29.90 in 10.0 mi South 12.7 mph 17.3 mph N/A   Scattered Clouds
9:55 PM 60.8 °F - 57.0 °F 87% 29.89 in 10.0 mi SSW 13.8 mph 20.7 mph N/A   Scattered Clouds
10:15 PM 61.2 °F - 56.1 °F 83% 29.89 in 10.0 mi SSW 12.7 mph 26.5 mph N/A   Clear
10:34 PM 61.3 °F - 55.4 °F 81% 29.88 in 10.0 mi SSW 18.4 mph 25.3 mph N/A   Scattered Clouds
10:55 PM 61.7 °F - 55.2 °F 79% 29.88 in 10.0 mi SSW 16.1 mph 26.5 mph N/A   Mostly Cloudy
11:15 PM 61.7 °F - 54.9 °F 78% 29.89 in 10.0 mi SSW 15.0 mph 24.2 mph N/A   Mostly Cloudy
11:34 PM 61.3 °F - 54.5 °F 78% 29.89 in 10.0 mi SSW 12.7 mph 23.0 mph N/A   Scattered Clouds
11:55 PM 61.3 °F - 54.5 °F 78% 29.89 in 10.0 mi SSW 15.0 mph 23.0 mph N/A   Mostly Cloudy